Date,TemperatureHighF,TemperatureAvgF,TemperatureLowF,DewpointHighF,DewpointAvgF,DewpointLowF,HumidityHigh,HumidityAvg,HumidityLow,PressureMaxIn,PressureMinIn,WindSpeedMaxMPH,WindSpeedAvgMPH,GustSpeedMaxMPH,PrecipitationSumIn
2013-2-1,22.7,16.9,11.9,12.5,9.7,4.2,81,73,60,30.19,29.80,11,2,11,0.00
2013-2-2,26.6,18.8,13.0,20.4,13.3,7.0,83,79,75,30.14,29.88,7,2,7,0.00
2013-2-3,24.7,15.3,4.0,17.3,9.2,-0.9,83,77,67,29.94,29.77,8,1,8,0.00
2013-2-4,26.8,20.4,14.6,20.4,14.9,7.7,83,79,73,29.95,29.82,3,0,3,0.00
2013-2-5,29.9,24.3,19.3,25.0,18.8,14.9,87,80,66,29.88,29.75,9,1,9,0.00
2013-2-6,31.3,23.0,9.4,24.8,16.4,5.0,86,76,63,30.24,29.88,6,1,6,0.08
2013-2-7,39.2,31.5,25.6,29.4,24.2,19.4,79,74,67,30.23,29.83,8,2,8,0.01
2013-2-8,31.1,28.4,24.7,27.4,23.5,18.2,88,82,76,30.27,29.71,8,2,8,0.00
2013-2-9,31.3,21.9,10.3,21.4,15.6,6.0,86,77,64,30.37,30.22,7,1,7,0.12
2013-2-10,40.3,28.3,14.8,33.7,22.8,10.8,88,80,67,30.24,29.65,5,1,5,0.15
2013-2-11,42.3,37.5,32.9,39.7,31.5,26.3,91,79,70,29.80,29.50,16,4,16,0.01
2013-2-12,34.9,32.2,30.2,27.0,25.0,22.2,79,74,70,29.98,29.80,12,2,12,0.00
2013-2-13,38.9,31.7,28.4,28.3,24.3,21.5,82,74,64,29.87,29.67,6,1,6,0.00
2013-2-14,28.6,27.6,26.6,23.8,23.1,22.3,84,83,82,29.73,29.71,3,1,3,0.00
2013-2-17,22.7,17.2,12.6,8.8,7.2,5.6,74,65,54,30.15,30.10,4,0,4,0.00
2013-2-18,43.2,29.9,12.6,33.9,21.6,5.9,81,71,62,30.15,29.56,10,3,10,0.00
2013-2-19,43.2,30.9,19.6,38.7,24.9,11.2,90,78,69,29.85,29.37,16,5,16,0.16
2013-2-20,24.7,21.4,17.1,15.7,12.9,10.0,79,70,61,30.16,29.85,16,3,16,0.00
2013-2-21,26.3,22.7,20.5,19.0,14.9,13.1,81,72,63,30.32,30.15,9,2,9,0.00
2013-2-22,34.2,25.5,23.4,31.2,21.0,17.9,89,83,79,30.22,29.83,8,3,8,0.00
2013-2-23,36.0,32.3,27.9,30.8,24.9,21.0,88,74,64,29.86,29.80,10,2,10,0.00
2013-2-24,37.1,29.4,21.4,28.4,22.4,15.9,82,75,64,30.09,29.83,8,1,8,0.01
2013-2-25,40.0,28.3,15.8,28.4,20.8,11.4,85,74,61,30.16,30.04,6,1,6,0.05
2013-2-26,37.3,32.2,28.3,31.3,26.9,21.3,92,81,67,30.07,29.47,12,3,12,0.24
2013-2-27,37.3,35.0,33.5,34.3,32.3,31.1,92,90,88,29.53,29.41,6,1,6,0.59
2013-2-28,39.1,34.7,31.0,34.4,30.2,25.2,91,84,76,29.90,29.49,8,2,8,0.29